Voltar ao catálogo

STARLINK-33639

AtivoComunicaçõesVLEO
NORAD 63481·PAYLOAD·🇺🇸 United States

Lançado Apr 6, 2025 de Cape Canaveral Space Force Station

Loading…

Próximas Passagens (próximas 24 horas)

TLE

AtualizadoSource: CelesTrak SupGP

Época: Sep 14, 2026, 22:34 UTC

1 63481C 25070X   26257.94076389  .00027052  00000+0  97993-3 0  2576
2 63481  43.0003 267.5895 0001492 266.0078 292.1974 15.27561364    16

Acompanhe STARLINK-33639 em tempo real com AllMySat

Download on the App Store